QPF
0.12 0.14 0.08 0.06 0.05 0.05 0.05 0.05 0.06 0.07 0.08 0.08 0.09 0.09 0.09 0.06 0.05 0.07 0.08 0.07 0.06 0.05 0.06 0.09 0.10 0.10 0.11 0.10 0.09 0.08 0.08 0.08 0.08 0.06 0.05 0.04 0.04 0.04 0.05 0.05 0.05 0.06 0.05
0.12 0.11 0.08 0.07 0.06 0.05 0.04 0.05 0.07 0.08 0.09 0.09 0.09 0.09 0.10 0.08 0.06 0.07 0.08 0.08 0.06 0.05 0.06 0.07 0.08 0.10 0.11 0.11 0.09 0.07 0.06 0.06 0.08 0.07 0.06 0.05 0.05 0.05 0.05 0.05 0.04 0.04 0.05
0.07 0.07 0.08 0.08 0.07 0.05 0.06 0.07 0.08 0.09 0.09 0.09 0.09 0.09 0.08 0.07 0.07 0.08 0.07 0.06 0.05 0.05 0.07 0.09 0.10 0.12 0.15 0.15 0.14 0.10 0.08 0.07 0.07 0.08 0.07 0.06 0.05 0.04 0.03 0.03 0.03 0.03 0.04
0.04 0.04 0.05 0.06 0.06 0.05 0.06 0.08 0.08 0.07 0.07 0.07 0.08 0.08 0.05 0.06 0.06 0.06 0.05 0.03 0.04 0.05 0.07 0.09 0.10 0.11 0.14 0.16 0.16 0.15 0.13 0.08 0.07 0.07 0.06 0.05 0.05 0.04 0.03 0.04 0.03 0.03 0.03
0.03 0.04 0.05 0.06 0.05 0.05 0.06 0.06 0.07 0.07 0.06 0.07 0.07 0.07 0.04 0.03 0.03 0.03 0.04 0.04 0.03 0.03 0.04 0.04 0.04 0.05 0.07 0.08 0.10 0.11 0.14 0.13 0.08 0.07 0.06 0.06 0.05 0.04 0.04 0.03 0.03 0.03 0.02
0.03 0.04 0.05 0.06 0.05 0.06 0.05 0.07 0.08 0.07 0.06 0.06 0.06 0.06 0.05 0.03 0.02 0.02 0.02 0.03 0.03 0.02 0.03 0.02 0.03 0.04 0.04 0.05 0.05 0.06 0.08 0.10 0.07 0.06 0.06 0.05 0.04 0.03 0.03 0.04 0.04 0.04 0.04
0.03 0.03 0.04 0.05 0.06 0.05 0.05 0.07 0.08 0.07 0.06 0.06 0.06 0.06 0.04 0.03 0.02 0.02 0.01 0.02 0.03 0.03 0.03 0.02 0.01 0.02 0.02 0.02 0.03 0.03 0.04 0.05 0.05 0.05 0.05 0.06 0.05 0.03 0.02 0.02 0.03 0.03 0.04
0.05 0.04 0.03 0.04 0.04 0.05 0.04 0.06 0.07 0.08 0.07 0.07 0.08 0.07 0.06 0.06 0.04 0.02 0.01 0.02 0.02 0.03 0.04 0.02 0.01 0.01 0.01 0.01 0.01 0.02 0.02 0.03 0.04 0.05 0.06 0.05 0.05 0.04 0.03 0.02 0.02 0.02 0.03
0.08 0.08 0.06 0.05 0.05 0.06 0.06 0.06 0.06 0.05 0.05 0.06 0.07 0.08 0.08 0.08 0.06 0.04 0.03 0.03 0.03 0.03 0.03 0.04 0.03 0.02 0.02 0.02 0.02 0.02 0.01 0.02 0.03 0.04 0.06 0.05 0.04 0.04 0.04 0.03 0.04 0.05 0.05
0.07 0.07 0.07 0.05 0.05 0.06 0.07 0.06 0.07 0.06 0.06 0.05 0.05 0.05 0.06 0.06 0.08 0.06 0.04 0.04 0.04 0.03 0.03 0.04 0.03 0.02 0.03 0.03 0.03 0.02 0.01 0.02 0.02 0.03 0.05 0.05 0.05 0.05 0.05 0.05 0.05 0.07 0.06
0.05 0.05 0.05 0.06 0.06 0.06 0.05 0.05 0.07 0.08 0.09 0.07 0.06 0.07 0.06 0.06 0.06 0.05 0.03 0.02 0.02 0.02 0.02 0.04 0.04 0.03 0.04 0.03 0.03 0.02 0.02 0.01 0.01 0.01 0.02 0.02 0.03 0.05 0.06 0.06 0.06 0.05 0.05
0.04 0.04 0.03 0.04 0.04 0.04 0.04 0.04 0.05 0.06 0.07 0.06 0.05 0.05 0.04 0.04 0.03 0.03 0.03 0.02 0.01 0.01 0.01 0.02 0.04 0.04 0.04 0.02 0.01 0.01 0.01 0.01 0.00 0.01 0.01 0.01 0.01 0.02 0.04 0.05 0.07 0.08 0.06
0.04 0.03 0.02 0.02 0.03 0.04 0.04 0.05 0.05 0.05 0.06 0.05 0.04 0.03 0.03 0.03 0.02 0.02 0.02 0.01 0.01 0.02 0.01 0.02 0.03 0.04 0.03 0.03 0.02 0.01 0.00 0.00 0.00 0.00 0.00 0.00 0.01 0.02 0.03 0.04 0.04 0.07 0.08
0.05 0.03 0.03 0.02 0.02 0.02 0.03 0.04 0.04 0.05 0.05 0.05 0.03 0.03 0.03 0.03 0.02 0.03 0.03 0.02 0.02 0.02 0.03 0.03 0.03 0.05 0.04 0.02 0.02 0.02 0.01 0.00 0.00 0.00 0.00 0.01 0.01 0.01 0.02 0.02 0.03 0.04 0.05
0.05 0.03 0.03 0.03 0.02 0.01 0.02 0.02 0.03 0.04 0.04 0.04 0.02 0.02 0.02 0.02 0.02 0.02 0.03 0.03 0.03 0.03 0.03 0.03 0.03 0.04 0.06 0.04 0.03 0.02 0.01 0.01 0.01 0.01 0.00 0.01 0.01 0.01 0.01 0.01 0.01 0.02 0.02
0.05 0.03 0.02 0.03 0.03 0.02 0.02 0.02 0.02 0.03 0.04 0.03 0.02 0.02 0.02 0.01 0.01 0.02 0.02 0.02 0.02 0.02 0.02 0.01 0.01 0.02 0.04 0.04 0.03 0.03 0.02 0.02 0.01 0.01 0.02 0.02 0.02 0.01 0.01 0.01 0.01 0.01 0.02
0.05 0.03 0.02 0.02 0.02 0.02 0.01 0.02 0.03 0.03 0.03 0.03 0.02 0.02 0.02 0.02 0.02 0.02 0.02 0.02 0.02 0.02 0.02 0.01 0.01 0.01 0.02 0.03 0.02 0.02 0.02 0.02 0.01 0.01 0.01 0.01 0.01 0.02 0.02 0.02 0.03 0.03 0.03
0.04 0.03 0.03 0.02 0.02 0.02 0.02 0.02 0.03 0.03 0.03 0.02 0.01 0.01 0.02 0.02 0.02 0.02 0.02 0.02 0.03 0.03 0.02 0.02 0.01 0.01 0.02 0.02 0.02 0.01 0.01 0.02 0.02 0.01 0.01 0.01 0.01 0.01 0.02 0.02 0.03 0.04 0.05
0.03 0.03 0.02 0.03 0.03 0.03 0.03 0.03 0.03 0.03 0.03 0.03 0.03 0.03 0.03 0.03 0.03 0.03 0.03 0.03 0.03 0.03 0.03 0.03 0.03 0.02 0.02 0.02 0.02 0.01 0.01 0.02 0.01 0.01 0.01 0.01 0.01 0.01 0.01 0.02 0.02 0.02 0.02
0.03 0.02 0.02 0.03 0.04 0.04 0.03 0.03 0.03 0.03 0.03 0.02 0.02 0.03 0.03 0.03 0.04 0.04 0.05 0.05 0.05 0.04 0.04 0.04 0.04 0.03 0.03 0.03 0.03 0.02 0.02 0.03 0.02 0.01 0.01 0.01 0.01 0.01 0.01 0.01 0.01 0.01 0.01
0.03 0.02 0.02 0.02 0.03 0.03 0.03 0.02 0.02 0.02 0.02 0.01 0.01 0.01 0.02 0.03 0.04 0.03 0.03 0.04 0.05 0.05 0.04 0.04 0.05 0.05 0.04 0.04 0.04 0.03 0.02 0.02 0.02 0.01 0.01 0.01 0.02 0.02 0.01 0.01 0.01 0.01 0.01
0.03 0.03 0.03 0.03 0.02 0.02 0.02 0.02 0.01 0.02 0.02 0.01 0.01 0.01 0.02 0.03 0.04 0.03 0.03 0.03 0.04 0.04 0.03 0.03 0.03 0.04 0.03 0.03 0.04 0.04 0.03 0.03 0.03 0.02 0.02 0.02 0.02 0.03 0.02 0.01 0.01 0.01 0.00
0.04 0.05 0.04 0.04 0.03 0.02 0.02 0.02 0.02 0.03 0.02 0.02 0.02 0.02 0.02 0.03 0.04 0.05 0.04 0.04 0.04 0.03 0.03 0.03 0.02 0.03 0.03 0.03 0.04 0.04 0.04 0.04 0.04 0.03 0.03 0.04 0.03 0.03 0.02 0.01 0.01 0.01 0.01
0.04 0.05 0.05 0.05 0.04 0.04 0.03 0.02 0.03 0.04 0.03 0.03 0.03 0.03 0.03 0.04 0.05 0.06 0.07 0.06 0.05 0.04 0.03 0.03 0.02 0.02 0.03 0.03 0.04 0.04 0.05 0.04 0.04 0.04 0.04 0.05 0.04 0.03 0.03 0.02 0.01 0.01 0.01
0.01 0.01 0.02 0.03 0.04 0.06 0.05 0.05 0.04 0.04 0.04 0.03 0.03 0.03 0.04 0.04 0.05 0.06 0.06 0.06 0.05 0.04 0.02 0.02 0.02 0.02 0.03 0.04 0.05 0.06 0.05 0.05 0.04 0.04 0.05 0.05 0.04 0.02 0.02 0.02 0.01 0.01 0.01
0.01 0.01 0.01 0.01 0.02 0.04 0.04 0.03 0.03 0.03 0.04 0.04 0.04 0.04 0.04 0.04 0.04 0.05 0.05 0.04 0.04 0.02 0.02 0.02 0.02 0.02 0.02 0.04 0.06 0.06 0.05 0.04 0.04 0.04 0.05 0.06 0.07 0.04 0.02 0.01 0.01 0.01 0.02
MSLP
1012.48 1012.67 1012.80 1012.88 1012.93 1012.99 1013.07 1013.17 1013.27 1013.34 1013.34 1013.26 1013.09 1012.86 1012.61 1012.38 1012.23 1012.19 1012.26 1012.43 1012.66 1012.89 1013.07 1013.18 1013.19 1013.12 1012.99 1012.85 1012.73 1012.66 1012.67 1012.74 1012.88 1013.05 1013.25 1013.46 1013.67 1013.88 1014.08 1014.29 1014.49 1014.69 1014.88
1012.26 1012.41 1012.50 1012.57 1012.63 1012.72 1012.85 1013.00 1013.15 1013.27 1013.32 1013.26 1013.10 1012.86 1012.57 1012.29 1012.08 1011.96 1011.96 1012.06 1012.24 1012.43 1012.61 1012.72 1012.76 1012.72 1012.63 1012.51 1012.40 1012.33 1012.32 1012.36 1012.45 1012.58 1012.74 1012.90 1013.07 1013.24 1013.41 1013.60 1013.79 1013.98 1014.18
1012.17 1012.26 1012.32 1012.37 1012.44 1012.56 1012.72 1012.93 1013.14 1013.31 1013.40 1013.37 1013.22 1012.96 1012.64 1012.31 1012.01 1011.81 1011.73 1011.75 1011.87 1012.02 1012.18 1012.31 1012.38 1012.38 1012.34 1012.26 1012.18 1012.12 1012.10 1012.11 1012.15 1012.22 1012.30 1012.38 1012.47 1012.57 1012.69 1012.82 1012.97 1013.15 1013.33
1012.18 1012.22 1012.24 1012.26 1012.33 1012.47 1012.66 1012.91 1013.16 1013.37 1013.50 1013.49 1013.36 1013.09 1012.75 1012.37 1012.02 1011.74 1011.58 1011.52 1011.57 1011.68 1011.81 1011.94 1012.03 1012.07 1012.08 1012.05 1012.01 1011.97 1011.94 1011.92 1011.91 1011.91 1011.90 1011.88 1011.87 1011.88 1011.90 1011.96 1012.06 1012.19 1012.36
1012.27 1012.24 1012.22 1012.22 1012.28 1012.41 1012.62 1012.88 1013.16 1013.39 1013.54 1013.56 1013.44 1013.19 1012.84 1012.45 1012.06 1011.74 1011.51 1011.39 1011.36 1011.41 1011.50 1011.61 1011.70 1011.77 1011.80 1011.82 1011.82 1011.80 1011.78 1011.74 1011.68 1011.61 1011.51 1011.39 1011.27 1011.16 1011.08 1011.05 1011.08 1011.17 1011.31
1012.38 1012.32 1012.26 1012.24 1012.28 1012.39 1012.59 1012.84 1013.11 1013.35 1013.50 1013.54 1013.45 1013.23 1012.91 1012.54 1012.16 1011.82 1011.55 1011.37 1011.28 1011.25 1011.28 1011.34 1011.40 1011.46 1011.51 1011.55 1011.57 1011.58 1011.57 1011.52 1011.43 1011.30 1011.12 1010.91 1010.68 1010.47 1010.29 1010.17 1010.12 1010.16 1010.26
1012.51 1012.42 1012.34 1012.30 1012.32 1012.42 1012.58 1012.80 1013.04 1013.26 1013.42 1013.47 1013.42 1013.25 1012.99 1012.67 1012.33 1012.00 1011.72 1011.49 1011.33 1011.22 1011.17 1011.14 1011.14 1011.16 1011.19 1011.23 1011.27 1011.30 1011.30 1011.26 1011.16 1010.99 1010.76 1010.47 1010.16 1009.86 1009.59 1009.38 1009.26 1009.23 1009.28
1012.65 1012.56 1012.48 1012.44 1012.45 1012.51 1012.64 1012.82 1013.01 1013.20 1013.34 1013.42 1013.40 1013.30 1013.12 1012.87 1012.59 1012.30 1012.02 1011.76 1011.53 1011.33 1011.17 1011.04 1010.95 1010.90 1010.88 1010.90 1010.93 1010.97 1010.99 1010.96 1010.87 1010.69 1010.44 1010.11 1009.75 1009.38 1009.04 1008.76 1008.56 1008.46 1008.45
1012.80 1012.73 1012.68 1012.65 1012.65 1012.70 1012.79 1012.92 1013.07 1013.22 1013.35 1013.43 1013.46 1013.42 1013.33 1013.17 1012.97 1012.72 1012.45 1012.17 1011.87 1011.58 1011.30 1011.05 1010.84 1010.69 1010.60 1010.58 1010.59 1010.63 1010.67 1010.66 1010.59 1010.43 1010.18 1009.85 1009.46 1009.06 1008.67 1008.33 1008.06 1007.89 1007.80
1012.94 1012.92 1012.91 1012.91 1012.93 1012.97 1013.04 1013.12 1013.23 1013.34 1013.45 1013.54 1013.61 1013.64 1013.62 1013.55 1013.42 1013.23 1012.97 1012.65 1012.29 1011.91 1011.51 1011.13 1010.81 1010.55 1010.38 1010.29 1010.28 1010.31 1010.35 1010.37 1010.33 1010.20 1009.97 1009.66 1009.28 1008.87 1008.46 1008.08 1007.76 1007.51 1007.33
1013.07 1013.10 1013.14 1013.19 1013.23 1013.28 1013.33 1013.39 1013.46 1013.55 1013.64 1013.74 1013.83 1013.91 1013.96 1013.96 1013.89 1013.73 1013.48 1013.15 1012.73 1012.26 1011.75 1011.26 1010.82 1010.46 1010.20 1010.05 1009.99 1010.00 1010.04 1010.08 1010.06 1009.96 1009.78 1009.50 1009.15 1008.76 1008.34 1007.94 1007.58 1007.27 1007.01
1013.15 1013.23 1013.32 1013.41 1013.49 1013.56 1013.61 1013.66 1013.71 1013.77 1013.85 1013.95 1014.06 1014.17 1014.27 1014.31 1014.28 1014.15 1013.91 1013.55 1013.09 1012.55 1011.97 1011.38 1010.85 1010.40 1010.05 1009.83 1009.72 1009.70 1009.72 1009.75 1009.75 1009.68 1009.53 1009.29 1008.99 1008.62 1008.23 1007.84 1007.46 1007.11 1006.78
1013.16 1013.28 1013.41 1013.54 1013.65 1013.74 1013.80 1013.84 1013.88 1013.93 1014.00 1014.10 1014.22 1014.35 1014.46 1014.53 1014.52 1014.41 1014.17 1013.80 1013.32 1012.73 1012.10 1011.45 1010.85 1010.33 1009.92 1009.63 1009.46 1009.39 1009.37 1009.37 1009.36 1009.30 1009.17 1008.97 1008.71 1008.39 1008.04 1007.68 1007.31 1006.95 1006.60
1013.09 1013.24 1013.39 1013.55 1013.68 1013.78 1013.85 1013.90 1013.94 1013.98 1014.04 1014.13 1014.25 1014.38 1014.50 1014.57 1014.57 1014.46 1014.23 1013.86 1013.37 1012.78 1012.12 1011.45 1010.81 1010.25 1009.79 1009.44 1009.20 1009.06 1008.98 1008.93 1008.88 1008.80 1008.67 1008.50 1008.28 1008.01 1007.72 1007.41 1007.09 1006.76 1006.43
1012.98 1013.12 1013.28 1013.44 1013.59 1013.70 1013.78 1013.83 1013.87 1013.91 1013.96 1014.04 1014.14 1014.26 1014.36 1014.43 1014.43 1014.33 1014.10 1013.75 1013.27 1012.70 1012.06 1011.39 1010.75 1010.16 1009.66 1009.26 1008.95 1008.73 1008.57 1008.44 1008.32 1008.20 1008.05 1007.88 1007.69 1007.48 1007.25 1007.02 1006.78 1006.52 1006.24
1012.87 1012.99 1013.14 1013.29 1013.42 1013.54 1013.62 1013.67 1013.71 1013.74 1013.78 1013.84 1013.92 1014.02 1014.11 1014.16 1014.15 1014.05 1013.84 1013.52 1013.08 1012.55 1011.95 1011.32 1010.69 1010.11 1009.58 1009.13 1008.76 1008.44 1008.19 1007.96 1007.76 1007.56 1007.37 1007.19 1007.01 1006.84 1006.69 1006.54 1006.39 1006.23 1006.04
1012.81 1012.90 1013.02 1013.15 1013.27 1013.37 1013.45 1013.50 1013.53 1013.55 1013.57 1013.62 1013.67 1013.74 1013.80 1013.84 1013.82 1013.73 1013.54 1013.26 1012.87 1012.39 1011.85 1011.28 1010.69 1010.12 1009.59 1009.10 1008.66 1008.26 1007.90 1007.57 1007.27 1006.99 1006.74 1006.52 1006.33 1006.19 1006.09 1006.02 1005.97 1005.91 1005.83
1012.83 1012.89 1012.98 1013.09 1013.19 1013.28 1013.35 1013.38 1013.40 1013.41 1013.41 1013.43 1013.46 1013.50 1013.53 1013.55 1013.53 1013.45 1013.29 1013.04 1012.71 1012.30 1011.83 1011.31 1010.78 1010.24 1009.71 1009.20 1008.70 1008.23 1007.78 1007.35 1006.95 1006.58 1006.25 1005.97 1005.77 1005.63 1005.56 1005.54 1005.56 1005.59 1005.61
1012.95 1012.98 1013.04 1013.13 1013.21 1013.29 1013.34 1013.37 1013.37 1013.36 1013.34 1013.33 1013.33 1013.34 1013.35 1013.35 1013.32 1013.25 1013.12 1012.92 1012.64 1012.29 1011.89 1011.44 1010.96 1010.45 1009.94 1009.42 1008.90 1008.38 1007.86 1007.34 1006.85 1006.39 1005.99 1005.65 1005.40 1005.23 1005.16 1005.16 1005.22 1005.30 1005.37
1013.11 1013.12 1013.17 1013.24 1013.32 1013.38 1013.42 1013.43 1013.42 1013.39 1013.35 1013.31 1013.28 1013.27 1013.26 1013.24 1013.21 1013.15 1013.04 1012.88 1012.65 1012.36 1012.02 1011.63 1011.20 1010.74 1010.26 1009.75 1009.22 1008.68 1008.12 1007.55 1007.00 1006.47 1005.99 1005.58 1005.27 1005.05 1004.93 1004.91 1004.95 1005.03 1005.11
1013.26 1013.27 1013.30 1013.37 1013.43 1013.49 1013.52 1013.52 1013.50 1013.45 1013.40 1013.34 1013.29 1013.25 1013.23 1013.20 1013.17 1013.12 1013.03 1012.89 1012.70 1012.46 1012.17 1011.83 1011.45 1011.04 1010.60 1010.13 1009.62 1009.08 1008.52 1007.93 1007.34 1006.77 1006.23 1005.76 1005.37 1005.07 1004.88 1004.79 1004.76 1004.79 1004.83
1013.34 1013.34 1013.37 1013.43 1013.49 1013.54 1013.57 1013.57 1013.54 1013.49 1013.42 1013.35 1013.29 1013.24 1013.21 1013.18 1013.15 1013.09 1013.01 1012.90 1012.73 1012.53 1012.27 1011.98 1011.66 1011.30 1010.90 1010.48 1010.02 1009.52 1008.98 1008.41 1007.82 1007.23 1006.65 1006.12 1005.65 1005.27 1004.98 1004.78 1004.66 1004.59 1004.53
1013.31 1013.30 1013.32 1013.38 1013.44 1013.49 1013.52 1013.52 1013.49 1013.44 1013.37 1013.31 1013.24 1013.19 1013.15 1013.12 1013.08 1013.03 1012.96 1012.85 1012.70 1012.52 1012.29 1012.03 1011.75 1011.44 1011.11 1010.75 1010.35 1009.91 1009.43 1008.90 1008.34 1007.75 1007.16 1006.59 1006.05 1005.59 1005.19 1004.88 1004.63 1004.43 1004.25
1013.17 1013.14 1013.16 1013.20 1013.26 1013.32 1013.35 1013.36 1013.34 1013.29 1013.24 1013.17 1013.12 1013.07 1013.03 1013.00 1012.96 1012.91 1012.83 1012.72 1012.58 1012.40 1012.20 1011.96 1011.72 1011.46 1011.18 1010.88 1010.56 1010.20 1009.79 1009.32 1008.81 1008.25 1007.66 1007.07 1006.49 1005.95 1005.47 1005.04 1004.67 1004.34 1004.04
1012.96 1012.91 1012.91 1012.95 1013.00 1013.05 1013.09 1013.11 1013.11 1013.08 1013.03 1012.98 1012.93 1012.89 1012.86 1012.82 1012.78 1012.72 1012.64 1012.52 1012.38 1012.20 1012.00 1011.79 1011.57 1011.35 1011.13 1010.90 1010.64 1010.35 1010.02 1009.63 1009.17 1008.65 1008.09 1007.50 1006.90 1006.31 1005.75 1005.24 1004.76 1004.33 1003.92
1012.75 1012.68 1012.67 1012.69 1012.73 1012.78 1012.83 1012.86 1012.86 1012.85 1012.82 1012.78 1012.74 1012.70 1012.66 1012.62 1012.57 1012.50 1012.41 1012.28 1012.13 1011.95 1011.76 1011.56 1011.36 1011.18 1011.00 1010.81 1010.62 1010.39 1010.12 1009.80 1009.40 1008.93 1008.40 1007.83 1007.23 1006.62 1006.02 1005.45 1004.91 1004.40 1003.91
Thickness
5722 5722 5721 5720 5721 5721 5721 5720 5721 5720 5719 5719 5719 5720 5719 5719 5718 5718 5715 5712 5710 5708 5708 5707 5705 5705 5704 5703 5702 5701 5701 5700 5700 5700 5699 5699 5698 5698 5698 5698 5698 5698 5698
5718 5718 5717 5716 5717 5718 5718 5718 5717 5716 5716 5716 5716 5715 5714 5715 5714 5713 5713 5710 5707 5706 5705 5704 5703 5702 5701 5700 5699 5699 5698 5698 5697 5696 5696 5695 5695 5695 5695 5695 5695 5695 5695
5713 5713 5713 5713 5713 5713 5713 5713 5713 5713 5712 5712 5712 5711 5711 5710 5711 5709 5709 5709 5707 5704 5702 5701 5700 5699 5698 5697 5696 5696 5696 5695 5694 5693 5692 5692 5691 5691 5691 5691 5691 5691 5691
5709 5708 5709 5709 5708 5709 5710 5710 5710 5709 5708 5708 5707 5707 5708 5707 5706 5705 5705 5705 5705 5704 5701 5698 5697 5695 5695 5694 5693 5693 5693 5692 5691 5690 5689 5688 5688 5688 5688 5687 5687 5687 5687
5705 5706 5706 5705 5705 5706 5706 5707 5706 5705 5704 5703 5703 5702 5703 5704 5703 5703 5702 5702 5701 5700 5700 5696 5694 5693 5691 5691 5690 5690 5689 5689 5688 5687 5686 5685 5685 5684 5684 5684 5683 5683 5683
5703 5703 5703 5701 5702 5702 5701 5701 5699 5699 5699 5699 5700 5699 5699 5700 5700 5699 5699 5699 5698 5697 5697 5696 5694 5691 5689 5688 5687 5687 5686 5686 5685 5684 5683 5683 5682 5681 5680 5680 5679 5679 5679
5700 5699 5701 5699 5698 5698 5697 5697 5696 5695 5694 5695 5694 5693 5695 5696 5696 5696 5696 5696 5696 5695 5694 5693 5692 5691 5689 5686 5685 5684 5683 5682 5681 5681 5680 5679 5678 5677 5676 5676 5676 5675 5675
5697 5698 5696 5696 5696 5694 5693 5692 5691 5691 5691 5691 5690 5688 5687 5689 5691 5694 5693 5692 5692 5692 5691 5690 5688 5686 5687 5686 5684 5681 5679 5678 5678 5677 5676 5676 5674 5673 5672 5672 5671 5671 5671
5694 5693 5693 5693 5693 5693 5691 5689 5689 5687 5686 5687 5687 5686 5684 5684 5687 5689 5688 5689 5687 5687 5687 5686 5684 5683 5682 5682 5681 5678 5675 5674 5673 5673 5672 5672 5671 5670 5669 5668 5667 5667 5666
5692 5690 5690 5689 5689 5690 5688 5688 5686 5684 5682 5682 5682 5682 5683 5684 5680 5682 5684 5685 5684 5682 5682 5682 5681 5679 5678 5677 5675 5673 5671 5670 5669 5668 5668 5667 5666 5665 5664 5663 5663 5662 5661
5689 5687 5687 5686 5685 5686 5685 5684 5682 5681 5680 5679 5679 5678 5678 5679 5679 5677 5676 5678 5679 5679 5678 5676 5675 5675 5674 5673 5671 5669 5667 5665 5664 5663 5663 5662 5661 5660 5659 5658 5657 5656 5655
5687 5685 5684 5682 5682 5682 5681 5680 5679 5678 5676 5675 5675 5675 5675 5674 5674 5673 5671 5671 5672 5674 5673 5672 5671 5670 5670 5669 5667 5664 5662 5660 5658 5658 5657 5656 5655 5654 5653 5652 5651 5650 5649
5684 5682 5681 5679 5679 5678 5677 5676 5674 5674 5672 5670 5669 5670 5670 5671 5671 5670 5668 5667 5667 5669 5668 5668 5667 5665 5664 5663 5661 5657 5656 5654 5652 5651 5650 5650 5649 5648 5647 5646 5644 5643 5642
5681 5680 5678 5677 5675 5674 5673 5672 5671 5669 5667 5666 5665 5663 5663 5664 5665 5664 5663 5662 5661 5663 5663 5662 5662 5661 5658 5657 5654 5651 5651 5648 5646 5645 5644 5643 5642 5641 5640 5639 5638 5637 5636
5679 5676 5675 5673 5672 5670 5669 5668 5667 5665 5663 5662 5661 5659 5658 5659 5659 5660 5659 5659 5657 5655 5655 5656 5655 5655 5652 5651 5648 5646 5645 5642 5639 5637 5636 5635 5634 5634 5633 5632 5631 5631 5629
5675 5673 5671 5670 5668 5666 5665 5664 5663 5661 5659 5657 5655 5653 5653 5655 5655 5655 5655 5655 5654 5652 5650 5651 5650 5649 5645 5645 5642 5640 5638 5636 5634 5631 5629 5628 5627 5626 5625 5625 5625 5624 5623
5672 5670 5669 5667 5665 5664 5662 5660 5659 5657 5655 5653 5651 5651 5649 5648 5650 5651 5651 5650 5650 5648 5644 5646 5646 5644 5639 5636 5635 5634 5633 5632 5630 5626 5623 5621 5619 5618 5618 5617 5617 5616 5615
5669 5667 5666 5664 5662 5661 5659 5657 5655 5654 5651 5649 5648 5647 5646 5646 5644 5645 5644 5644 5643 5641 5639 5637 5638 5637 5634 5632 5629 5628 5629 5628 5625 5622 5618 5615 5613 5611 5610 5609 5609 5608 5608
5666 5665 5663 5661 5660 5658 5656 5654 5652 5650 5649 5647 5646 5644 5643 5642 5640 5641 5639 5639 5639 5638 5636 5633 5633 5632 5631 5629 5626 5625 5625 5621 5621 5619 5614 5611 5608 5606 5604 5603 5601 5601 5600
5664 5662 5661 5659 5657 5656 5654 5651 5649 5647 5645 5644 5642 5641 5640 5639 5637 5636 5635 5634 5633 5632 5631 5630 5629 5628 5626 5625 5621 5620 5619 5618 5616 5615 5611 5608 5605 5601 5599 5598 5596 5594 5593
5662 5659 5658 5656 5654 5653 5651 5648 5646 5645 5642 5640 5639 5638 5637 5634 5631 5630 5631 5630 5628 5627 5627 5626 5624 5623 5622 5618 5616 5615 5613 5611 5611 5609 5607 5605 5602 5600 5597 5594 5591 5588 5586
5659 5657 5655 5653 5651 5651 5646 5642 5641 5641 5639 5637 5636 5635 5634 5632 5629 5626 5624 5622 5620 5620 5621 5619 5619 5616 5614 5613 5610 5608 5607 5605 5603 5604 5600 5599 5598 5595 5594 5591 5586 5583 5580
5656 5654 5652 5650 5648 5645 5641 5638 5635 5635 5636 5634 5632 5631 5633 5633 5628 5628 5624 5620 5617 5614 5610 5611 5612 5609 5609 5608 5604 5602 5599 5597 5595 5596 5593 5592 5592 5589 5588 5585 5581 5577 5574
5653 5651 5650 5648 5645 5642 5637 5634 5632 5633 5633 5632 5630 5629 5628 5627 5626 5623 5622 5621 5618 5615 5610 5607 5606 5604 5603 5601 5597 5595 5593 5591 5592 5592 5588 5586 5586 5584 5583 5580 5575 5572 5569
5651 5649 5648 5646 5643 5639 5634 5631 5628 5632 5632 5630 5629 5627 5625 5624 5619 5616 5616 5616 5615 5613 5609 5605 5601 5599 5596 5593 5590 5589 5588 5587 5588 5588 5585 5581 5581 5579 5578 5576 5572 5567 5565
5649 5648 5646 5644 5641 5638 5632 5629 5626 5632 5630 5630 5628 5626 5622 5619 5615 5612 5612 5612 5610 5609 5606 5604 5599 5596 5594 5591 5587 5584 5584 5583 5583 5582 5581 5577 5575 5574 5572 5572 5569 5565 5561